Welcome to the New NWS' Forecast!
Most changes are behind the scenes, but click here for differences you might notice.

Regional Weather Roundup (RWR)

Issued by Glasgow, MT (GGW)

                            
499 
ASUS45 KGGW 201215
RWRGGW
HOURLY REGIONAL WEATHER ROUNDUP FOR NORTHEAST MONTANA
NATIONAL WEATHER SERVICE GLASGOW MONTANA
600 AM MDT MON AUG 20 2018

NOTE: "FAIR" INDICATES FEW OR NO CLOUDS BELOW 12,000 FEET WITH NO
SIGNIFICANT WEATHER AND/OR OBSTRUCTIONS TO VISISBILITY.

NORTHEAST MONTANA

  
CITY           SKY/WX    TMP DP  RH WIND       PRES   REMARKS
GLASGOW        CLOUDY    55  37  50 CALM      30.24R                  
6HR MIN TEMP:  53; 6HR MAX TEMP:  61;                                

WOLF POINT     MOCLDY    51  37  58 CALM      30.26S                  
JORDAN           N/A     51  41  68 CALM      30.24R                  
WINNETT          N/A     55  34  45 W3          N/A                   
SIDNEY         CLEAR     45  35  68 NW3       30.26R                  
GLENDIVE       PTCLDY    48  34  58 NE5       30.25R                  
MALTA            N/A     52  50  93 E2          N/A                   

FORT PECK REPORTS

  
CITY           SKY/WX    TMP DP  RH WIND       PRES   REMARKS
FORT PECK        N/A     55  37  50 S6          N/A                   
THE PINES        N/A     59  41  51 N3          N/A                   

SOUTHEAST MONTANA

  
CITY           SKY/WX    TMP DP  RH WIND       PRES   REMARKS
BILLINGS       TSTM      54  47  77 N14       30.19R                  
MILES CITY     MOCLDY    48  42  80 N8        30.21R                  
BAKER          PTCLDY    44  39  82 SE5       30.25R                  
LIVINGSTON     CLOUDY    54  48  80 E9        30.19S HAZE             

CENTRAL MONTANA

  
CITY           SKY/WX    TMP DP  RH WIND       PRES   REMARKS
HAVRE          CLOUDY    53  47  79 E13       30.23S                  
LEWISTOWN      RAIN      47  42  83 SE18      30.21F                  
GREAT FALLS    CLOUDY    54  38  54 NE10      30.19S                  
CUT BANK       CLOUDY    53  42  66 N8        30.28R                  
HELENA         PTCLDY    54  40  59 W7        30.16F                  
BUTTE          MOCLDY    50  43  77 CALM      30.16S HAZE             
BOZEMAN        MOCLDY    57  49  74 SE7       30.11F HAZE             

WESTERN MONTANA

  
CITY           SKY/WX    TMP DP  RH WIND       PRES   REMARKS
MISSOULA       MOCLDY    66  40  38 SE12      30.05R HAZE             
KALISPELL      NOT AVBL                                               

NORTH DAKOTA

  
CITY           SKY/WX    TMP DP  RH WIND       PRES   REMARKS
WILLISTON      CLEAR     43  36  76 CALM      30.26R                  
DICKINSON      CLEAR     44  37  76 NW6       30.23R                  
MINOT          PTCLDY    47  39  74 W3        30.23R                  
BISMARCK       CLEAR     49  45  86 W6        30.22R                  

SOUTHERN SASKATCHEWAN

  
CITY           SKY/WX    TMP DP  RH WIND       PRES   REMARKS
REGINA         CLOUDY    46  39  76 CALM      30.26R                  
MOOSE JAW      CLOUDY    45  39  81 W6        30.27R                  
ESTEVAN        PTCLDY    41  37  87 VRB2      30.26R                  
SWIFT CURRENT  MOCLDY    52  34  50 E5        30.27R